N5CNB Weather Reports


Display with metric or nautical units.
time (UTC)temp
F
wind
direction
speed
MPH
gust
MPH
rain 1hr
in
rain 24hr
in
rain mn
in
humidity
%
barometer
mb
20260901041511 80 226 0.0 0.0 0.00 0.00 0.00 82 1015.7
20260901040021 81 226 0.0 0.0 0.00 0.00 0.00 81 1015.5
20260901034529 81 226 0.0 0.0 0.00 0.00 0.00 80 1015.5
20260901033028 82 156 0.0 2.0 0.00 0.00 0.00 79 1015.6
20260901031510 82 119 0.0 3.0 0.00 0.00 0.00 79 1015.4
20260901030013 83 132 2.0 5.0 0.00 0.00 0.00 78 1015.2
20260901024519 83 188 4.0 9.0 0.00 0.00 0.00 78 1015.0
20260901023027 84 156 1.0 5.0 0.00 0.00 0.00 78 1014.6
20260901021535 84 169 3.0 7.0 0.00 0.00 0.00 76 1014.3
20260901020012 85 78 4.0 10.0 0.00 0.00 0.00 73 1014.1
20260901014518 86 174 4.0 9.0 0.00 0.00 0.00 71 1014.1
20260901013021 87 157 2.0 9.0 0.00 0.00 0.00 68 1014.1
20260901011535 87 59 4.0 14.0 0.00 0.00 0.00 66 1014.0
20260901010041 88 102 5.0 15.0 0.00 0.00 0.00 64 1013.9
20260901004509 89 164 6.0 16.0 0.00 0.00 0.00 62 1013.8
20260901003020 90 128 6.0 13.0 0.00 0.00 0.00 59 1013.7
20260901001528 91 125 6.0 13.0 0.00 0.00 0.00 58 1013.6
20260901000030 92 84 6.0 11.0 0.00 0.00 0.00 56 1013.6
20260831234532 92 114 5.0 16.0 0.00 0.00 0.00 55 1013.6
20260831233027 93 97 7.0 16.0 0.00 0.00 0.00 51 1013.6
20260831231520 93 158 2.0 10.0 0.00 0.00 0.00 50 1013.5
20260831230027 93 94 7.0 14.0 0.00 0.00 0.00 49 1013.7
20260831224530 94 132 4.0 15.0 0.00 0.00 0.00 51 1013.6
20260831223032 94 148 5.0 11.0 0.00 0.00 0.00 51 1013.5
20260831221512 94 70 2.0 13.0 0.00 0.00 0.00 51 1013.7
20260831220018 95 82 6.0 15.0 0.00 0.00 0.00 49 1013.8
20260831214527 97 135 4.0 7.0 0.00 0.00 0.00 46 1013.8
20260831213032 95 89 0.0 3.0 0.00 0.00 0.00 46 1014.2
20260831211534 94 77 0.0 5.0 0.00 0.00 0.00 49 1014.3
20260831210018 95 103 3.0 7.0 0.00 0.00 0.00 48 1014.3
20260831204521 94 158 2.0 10.0 0.00 0.00 0.00 48 1014.5
20260831203026 95 98 7.0 14.0 0.00 0.00 0.00 48 1014.9
20260831201515 96 72 6.0 10.0 0.00 0.00 0.00 46 1015.0
20260831200011 95 328 0.0 11.0 0.00 0.00 0.00 47 1015.2
20260831194517 95 110 4.0 8.0 0.00 0.00 0.00 48 1015.4
20260831193033 94 78 5.0 12.0 0.00 0.00 0.00 51 1015.5
20260831191531 94 58 4.0 12.0 0.00 0.00 0.00 51 1015.8
20260831190010 96 224 5.0 13.0 0.00 0.00 0.00 46 1015.9
20260831184512 97 165 2.0 8.0 0.00 0.00 0.00 46 1016.0
20260831183018 96 345 0.0 9.0 0.00 0.00 0.00 46 1016.3
20260831181524 96 351 4.0 8.0 0.00 0.00 0.00 48 1016.4
20260831180029 95 350 2.0 8.0 0.00 0.00 0.00 50 1016.7
20260831174514 99 274 1.0 4.0 0.00 0.00 0.00 48 1016.9
20260831173018 95 259 1.0 7.0 0.00 0.00 0.00 53 1017.0
20260831171521 94 56 1.0 4.0 0.00 0.00 0.00 55 1017.0
20260831170035 93 253 0.0 7.0 0.00 0.00 0.00 54 1017.1
20260831164528 92 245 3.0 6.0 0.00 0.00 0.00 55 1017.4
20260831163011 93 232 2.0 6.0 0.00 0.00 0.00 57 1017.4
20260831161514 92 85 1.0 6.0 0.00 0.00 0.00 57 1017.5
20260831160026 92 231 2.0 6.0 0.00 0.00 0.00 64 1017.4
20260831154557 89 284 2.0 5.0 0.00 0.00 0.00 69 1017.5
20260831153030 87 231 1.0 5.0 0.00 0.00 0.00 74 1017.5
20260831151511 86 224 2.0 4.0 0.00 0.00 0.00 76 1017.4
20260831150021 87 218 2.0 4.0 0.00 0.00 0.00 76 1017.4
20260831144524 86 188 4.0 6.0 0.00 0.00 0.00 78 1017.4
20260831143028 85 159 1.0 5.0 0.00 0.00 0.00 80 1017.4
20260831141535 84 127 1.0 3.0 0.00 0.00 0.00 82 1017.3
20260831140012 84 166 0.0 0.0 0.00 0.00 0.00 84 1017.1
20260831134521 81 73 0.0 0.0 0.00 0.00 0.00 87 1016.9
20260831133030 79 60 0.0 0.0 0.00 0.00 0.00 89 1016.7
20260831131527 77 73 0.0 0.0 0.00 0.00 0.00 91 1016.6
20260831130033 75 70 0.0 1.0 0.00 0.00 0.00 92 1016.5
20260831124519 74 271 0.0 0.0 0.00 0.00 0.00 92 1016.2
20260831123030 73 272 0.0 0.0 0.00 0.00 0.00 92 1016.0
20260831121538 72 272 0.0 0.0 0.00 0.00 0.00 92 1015.9
20260831120033 72 272 0.0 0.0 0.00 0.00 0.00 92 1015.9
20260831114535 72 272 0.0 0.0 0.00 0.00 0.00 91 1015.8
20260831113008 73 272 0.0 0.0 0.00 0.00 0.00 91 1015.8
20260831111507 73 272 0.0 0.0 0.00 0.00 0.00 91 1015.9
20260831110009 73 272 0.0 0.0 0.00 0.00 0.00 91 1015.8
20260831104507 73 272 0.0 0.0 0.00 0.00 0.00 91 1015.6
20260831103007 73 272 0.0 0.0 0.00 0.00 0.00 91 1015.8
20260831101509 74 240 0.0 0.0 0.00 0.00 0.00 91 1015.8
20260831100010 74 240 0.0 0.0 0.00 0.00 0.00 91 1015.8
20260831094509 74 240 0.0 0.0 0.00 0.00 0.00 91 1015.7
20260831093012 74 240 0.0 0.0 0.00 0.00 0.00 91 1015.8
20260831091507 74 240 0.0 0.0 0.00 0.00 0.00 90 1015.7
20260831090010 75 240 0.0 0.0 0.00 0.00 0.00 90 1015.8
20260831084509 75 240 0.0 0.0 0.00 0.00 0.00 90 1015.8
20260831083017 75 240 0.0 0.0 0.00 0.00 0.00 90 1015.7
20260831081510 75 239 0.0 0.0 0.00 0.00 0.00 90 1015.7
20260831080024 75 235 0.0 0.0 0.00 0.00 0.00 90 1015.7
20260831074516 74 210 0.0 0.0 0.00 0.00 0.00 89 1015.9
20260831073018 75 212 0.0 0.0 0.00 0.00 0.00 89 1015.9
20260831071510 75 211 0.0 0.0 0.00 0.00 0.00 89 1016.0
20260831070013 75 211 0.0 0.0 0.00 0.00 0.00 88 1016.0
20260831064513 75 209 0.0 1.0 0.00 0.00 0.00 88 1016.2
20260831063014 75 243 0.0 0.0 0.00 0.00 0.00 88 1016.3
20260831061515 75 243 0.0 0.0 0.00 0.00 0.00 87 1016.4
20260831060018 76 243 0.0 0.0 0.00 0.00 0.00 86 1016.3
20260831054518 76 243 0.0 0.0 0.00 0.00 0.00 86 1016.4
20260831053020 77 243 0.0 0.0 0.00 0.00 0.00 85 1016.2
20260831051520 78 243 0.0 0.0 0.00 0.00 0.00 84 1016.2
20260831050018 78 243 0.0 0.0 0.00 0.00 0.00 83 1016.1
20260831044521 79 219 0.0 0.0 0.00 0.00 0.00 82 1016.1
20260831043020 80 131 0.0 2.0 0.00 0.00 0.00 80 1015.8